Location: San Martino di Castrozza
(46.2667°N, 11.8000°E)
Time: 03:29:42
(UTC+00:00)

Daily predictions for brighter satellites

Satellite Brightness Start Highest point End
(mag) Time Altitude Azimuth Time Altitude Azimuth Time Altitude Azimuth
BREEZE-M R/B 4.4 00:08:25 37° ENE 00:08:25 37° ENE 00:12:28 10° ENE
Meteor 1-11 Rocket 4.4 00:01:24 10° NNW 00:06:15 47° WNW 00:06:15 47° WNW
Resurs 1-4 Rocket 3.2 00:06:49 10° NNE 00:11:25 33° E 00:11:25 33° E
Cosmos 1777 Rocket 4.4 00:13:00 60° N 00:13:00 60° N 00:17:24 10° NNE
Cosmos 1844 Rocket 4.0 00:12:33 29° WNW 00:13:12 30° NW 00:18:06 10° N
Cosmos 2218 Rocket 3.9 00:09:12 10° N 00:15:24 74° E 00:15:47 71° ESE
Cosmos 2366 rocket 3.9 00:14:32 10° N 00:20:44 78° E 00:21:03 75° ESE
Cosmos 1733 Rocket 4.2 00:22:22 10° N 00:25:12 40° N 00:25:12 40° N
CZ-4C R/B 3.1 00:23:27 10° NW 00:30:36 71° NE 00:38:56 10° SE
Meteor 1-19 Rocket 4.2 00:32:44 70° E 00:32:44 70° E 00:38:11 10° NNE
CZ-2D R/B 2.6 00:27:47 10° NNE 00:33:08 51° E 00:33:21 50° ESE
NOSS 3-3 (A) 3.7 00:35:03 84° S 00:35:14 86° SE 00:41:51 10° NE
NOSS 3-3 (C) 3.7 00:35:10 83° S 00:35:21 85° SE 00:41:57 10° NE
Meteor 2-4 Rocket 4.5 00:34:37 42° ESE 00:35:32 45° E 00:41:07 10° NNE
Cosmos 2082 Rocket 2.4 00:31:21 10° NNW 00:36:58 65° ENE 00:38:00 54° ESE
SL-16 R/B 2.7 00:36:28 51° SE 00:38:01 71° ENE 00:44:17 10° NNW
Cosmos 1833 Rocket 2.9 00:33:01 10° NNW 00:37:45 58° WNW 00:37:45 58° WNW
ADEOS II 3.5 00:35:50 10° NE 00:40:18 28° E 00:41:22 26° ESE
ATLAS 2AS CENTAUR R/B 4.1 00:33:28 10° NNW 00:40:27 39° NE 00:46:56 10° ESE
Cosmos 1862 Rocket 4.3 00:52:44 48° NNW 00:52:44 48° NNW 00:56:05 10° N
Cosmos 1943 Rocket 3.8 00:51:58 22° SE 00:53:26 24° ESE 00:57:53 10° NE
SJ 16-02 2.2 00:54:21 44° NNW 00:54:21 44° NNW 00:57:51 10° N
Okean 1-7 3.7 00:58:39 49° ENE 00:58:39 49° ENE 01:02:27 10° NNE
Meteor 1-18 Rocket 4.1 00:59:26 73° SW 00:59:54 78° WNW 01:05:41 10° N
Cosmos 2278 Rocket 2.3 01:01:19 58° W 01:01:48 61° WNW 01:07:25 10° NNE
ATLAS 5 CENTAUR R/B 3.1 01:04:50 10° NW 01:08:34 36° W 01:08:34 36° W
Cosmos 1680 Rocket 3.3 01:08:47 10° NNW 01:14:06 76° WSW 01:14:21 74° SW
Meteor 2-9 Rocket 4.5 01:08:37 10° NNW 01:14:18 52° W 01:14:25 52° W
AQUA 3.7 01:10:22 10° NNE 01:15:09 77° ESE 01:15:28 73° SE
USA 234 3.9 01:12:23 10° ENE 01:18:33 42° SE 01:20:19 35° SSE
NPP 3.5 01:13:33 10° NNE 01:18:58 83° WNW 01:19:47 65° SSW
DELTA 2 R/B (1) 4.3 01:24:37 37° SSE 01:24:37 37° SSE 01:28:39 10° ESE
Milstar 3 4.4 01:24:46 19° SSE 01:24:46 19° SSE 01:29:15 10° SE
Helios 1B rocket 3.0 01:20:28 10° N 01:23:58 47° NW 01:23:58 47° NW
Cosmos 2369 Rocket 4.0 01:23:06 16° SE 01:26:01 24° ESE 01:30:24 10° NE
UNK 4.4 01:31:04 41° WNW 01:31:04 41° WNW 01:34:47 10° NNW
Cosmos 990 Rocket 4.1 01:33:48 53° WSW 01:34:35 59° WNW 01:39:46 10° NNE
Cosmos 1378 3.3 01:36:33 66° E 01:36:33 66° E 01:40:10 10° NNE
Cosmos 2297 3.8 01:36:46 45° S 01:38:31 74° ESE 01:44:14 10° NNE
X-37B 2.3 01:41:18 29° E 01:41:18 29° E 01:43:03 10° E
Gbstr 26 Del rocket 4.3 01:36:15 20° WNW 01:40:17 51° N 01:45:14 10° ENE
ARGOS Delta rocket 3.6 01:37:27 10° NNE 01:41:53 81° ESE 01:42:43 58° S
Cosmos 2084 3.4 01:47:50 62° W 01:48:18 69° NW 01:52:33 10° NE
Resurs 1-4 Rocket 2.9 01:46:37 10° N 01:51:24 36° WNW 01:52:30 33° W
Sich 1 Rocket 3.7 01:46:59 10° N 01:51:36 76° E 01:53:55 29° SSE
Cosmos 1937 Rocket 3.4 01:50:18 49° SW 01:51:37 70° WNW 01:56:45 10° NNE
Cosmos 2242 Rocket 4.2 01:53:19 38° W 01:53:28 38° WNW 01:57:35 10° N
Cosmos 858 Rocket 4.5 01:54:32 45° SW 01:56:00 67° WNW 02:01:12 10° NNE
DELTA 2 DEB (DPAF) 4.3 01:57:25 49° WSW 01:57:42 50° W 02:02:03 10° NNW
Cosmos 1733 3.9 01:54:30 10° N 01:58:12 51° ENE 02:00:34 20° SSE
Cosmos 1766 4.2 01:56:28 10° N 02:00:21 48° ENE 02:03:48 12° SSE
Cosmos 1898 Rocket 4.1 01:59:46 35° WSW 02:01:15 44° WNW 02:06:20 10° N
ARIANE 5 R/B 3.4 01:56:52 10° NNE 02:01:54 46° E 02:05:54 16° SSE
IKONOS-2 4.4 02:00:54 44° S 02:02:09 70° WSW 02:06:27 10° NNW
SL-08 R/B 4.0 02:00:33 10° SSE 02:05:18 56° ENE 02:10:01 10° N
OE (NEXTSAT) 4.1 02:05:33 76° SW 02:05:45 81° S 02:09:13 10° E
Cosmos 372 Rocket 3.9 02:05:10 36° SSW 02:07:18 89° WNW 02:12:27 10° NNE
CZ-2D R/B 3.4 02:08:22 10° N 02:12:53 27° WNW 02:14:41 22° W
CZ-4C R/B 3.7 02:13:25 37° SSW 02:14:50 54° W 02:19:12 10° NNW
Okean 3 3.9 02:15:08 38° WSW 02:16:06 45° WNW 02:20:16 10° N
NOSS 3-4 (A) 4.0 02:10:38 10° NW 02:17:28 51° WSW 02:24:59 10° SSE
NOSS 3-4 (C) 4.0 02:10:45 10° NW 02:17:34 52° WSW 02:25:07 10° SSE
Cosmos 1805 3.1 02:14:34 10° NNW 02:18:29 71° W 02:20:14 31° S
IRS-P3 4.2 02:13:13 10° NNE 02:18:37 81° ESE 02:22:19 21° S
CZ-4C R/B 3.6 02:12:25 10° NW 02:19:02 35° WSW 02:26:23 10° S
CBERS-1 4.1 02:14:44 10° N 02:19:46 60° WNW 02:22:13 30° SW
ADEOS II 2.6 02:15:11 10° N 02:20:09 43° WNW 02:22:19 29° WSW
Cosmos 2082 Rocket 3.5 02:16:28 10° NW 02:19:47 20° W 02:19:47 20° W
SL-16 R/B 3.7 02:21:33 21° W 02:22:11 21° W 02:26:51 10° NW
CZ-3B R/B 4.2 02:08:18 21° SW 02:22:37 69° SE 02:27:52 10° ENE
Cosmos 2298 Rocket 4.4 02:19:32 19° S 02:23:21 62° ESE 02:28:35 10° NNE
Meteor 1-28 Rocket 4.0 02:26:38 31° W 02:26:38 31° W 02:29:56 10° NNW
BREEZE-M R/B 4.4 02:25:03 10° WNW 02:29:45 72° NNE 02:40:13 10° E
Cosmos 1300 Rocket 3.8 02:26:22 10° NNW 02:30:41 50° W 02:33:04 24° SSW
SL-4 R/B 4.3 02:34:18 13° S 02:34:18 13° S 02:35:03 10° S
ATLAS 2AS CENTAUR R/B 2.7 02:24:36 10° NW 02:31:52 65° WSW 02:38:31 10° SSE
IRS-1D 4.2 02:27:30 10° N 02:32:19 40° WNW 02:34:54 24° WSW
ADEOS Rocket 3.5 02:28:40 14° S 02:34:10 51° W 02:41:12 10° NNW
CZ-4B R/B 3.3 02:30:26 10° NNE 02:35:14 82° WNW 02:38:45 19° SSW
Cosmos 1943 Rocket 2.4 02:33:30 25° SW 02:36:46 57° WNW 02:42:21 10° NNE
Cosmos 1125 Rocket 4.0 02:33:08 13° S 02:37:50 60° ESE 02:43:01 10° NNE
Cosmos 2151 Rocket 3.6 02:34:45 10° NNW 02:39:15 66° W 02:43:44 10° S
IDEFIX/ARIANE 42P 2.7 02:34:36 10° N 02:39:43 56° WNW 02:43:11 20° SW
DNEPR-1 R/B 4.2 02:35:56 20° SSW 02:40:18 82° SE 02:45:27 10° NE
Okean 2 Rocket 3.4 02:38:52 10° NNW 02:43:07 46° W 02:46:13 17° SSW
USA 305 3.7 02:41:02 10° NW 02:45:15 53° NNE 02:49:27 10° ESE
Cosmos 2278 Rocket 4.3 02:44:11 10° WNW 02:47:08 14° NW 02:50:04 10° N
Cosmos 1400 Rocket 3.2 02:46:34 10° N 02:50:42 68° ENE 02:54:48 10° SSE
Cosmos 1153 Rocket 4.5 02:45:33 10° NNW 02:51:48 75° W 02:58:08 10° S
Cosmos 2263 4.3 02:46:56 14° SSW 02:51:59 81° ESE 02:57:47 10° NNE
IRAS Rocket 4.4 02:48:44 10° SSE 02:54:13 76° ENE 02:59:48 10° NNW
Cosmos 2221 Rocket 4.2 02:51:52 20° SW 02:54:31 39° WNW 02:58:48 10° N
RESURS DK-1 4.1 02:52:16 10° NNW 02:56:10 37° NE 03:00:02 10° SE
Cosmos 44 3.4 02:50:45 10° NW 02:56:13 78° WSW 03:01:29 10° SSE
CZ-2C R/B 2.9 02:51:35 10° NNE 02:56:23 60° ESE 03:01:17 10° S
Cosmos 2344 4.4 02:47:32 10° NW 02:56:54 88° SW 03:10:05 10° SE
Cosmos 1842 3.2 02:56:24 14° SSW 02:59:41 65° W 03:03:32 10° N
Cosmos 1900 4.5 02:56:49 17° SW 03:00:45 70° NW 03:05:51 10° NNE
Cosmos 2150 Rocket 4.1 02:56:23 14° SSW 03:01:08 72° WNW 03:06:33 10° NNE
Okean 1 Rocket 3.0 02:57:15 10° N 03:01:45 80° W 03:06:10 10° S
USA 234 3.4 02:55:17 10° NE 03:01:48 69° NNW 03:07:40 13° WSW
USA 306 3.4 02:59:04 10° NW 03:03:21 64° NNE 03:07:37 10° ESE
SL-27 R/B 2.5 03:00:22 10° NNW 03:03:41 75° ENE 03:06:58 10° SSE
MSX 4.1 02:59:50 10° N 03:05:24 51° WNW 03:10:44 11° SW
Meteor 2-20 Rocket 4.5 03:00:35 10° S 03:06:43 84° W 03:12:57 10° N
DELTA 2 R/B (1) 4.5 03:05:23 14° WSW 03:09:12 29° SSW 03:13:57 10° SE
Cosmos 2369 Rocket 2.4 03:04:53 14° SW 03:09:38 57° WNW 03:15:11 10° NNE
Cosmos 1833 4.2 03:04:25 10° NNW 03:10:10 82° WSW 03:15:56 10° SSE
CREW DRAGON DEMO-1 DEB 4.4 03:09:07 10° NW 03:11:33 29° N 03:14:00 10° ENE
Cosmos 1802 Rocket 4.2 03:05:20 10° N 03:11:36 76° E 03:17:46 10° SSE
X-37B 0.6 03:13:35 12° W 03:16:26 63° S 03:19:35 10° ESE
Cosmos 1378 Rocket 3.9 03:15:03 10° SSW 03:19:17 45° WNW 03:23:31 10° N
USA 307 3.1 03:17:30 10° NW 03:21:50 78° NNE 03:26:08 10° ESE
CZ-2C R/B 2.8 03:21:31 10° N 03:25:18 65° WNW 03:29:09 10° SSW
Cosmos 1607 4.4 03:19:12 10° SSW 03:25:33 69° ESE 03:32:02 10° NE
Cosmos 1953 3.6 03:23:12 10° N 03:27:02 45° ENE 03:30:51 10° SSE
Cosmos 1484 Rocket 3.9 03:23:39 10° NNE 03:27:33 47° E 03:31:24 10° S
Gbstr 26 Del rocket 4.1 03:22:32 10° WNW 03:28:00 53° NNE 03:32:24 10° E
Cosmos 2016 Rocket 4.1 03:24:55 10° N 03:31:20 88° E 03:37:37 10° S
FENGYUN 3A 3.9 03:25:56 10° NNE 03:31:21 77° ESE 03:36:43 10° S
Cosmos 1818 3.8 03:26:43 10° NW 03:32:01 50° WSW 03:37:16 10° SSE
COSMOS 2487 3.9 03:31:12 10° N 03:34:28 41° ENE 03:37:41 10° SE
USA 308 2.9 03:30:19 10° WNW 03:34:38 88° SSW 03:38:56 10° SE
Cosmos 1656 Rocket 3.9 03:31:51 10° SW 03:37:08 54° WNW 03:42:31 10° NNE
Cosmos 2100 Rocket 4.2 03:31:28 10° NNW 03:37:27 53° W 03:43:29 10° SSW
Okean 2 4.2 03:36:39 10° SW 03:40:26 34° WNW 03:44:16 10° N
ARIANE 5 R/B 3.7 03:36:25 10° N 03:40:46 27° WNW 03:45:05 10° WSW
